Weather History for Buffalo, MN

Change the Weather History Date:

Friday, November 9, 2012

  Actual Average (KSTC) Record (KSTC)
Temperature  
Mean Temperature 42 °F 34 °F  
Max Temperature 48 °F 43 °F 68 °F (1999)
Min Temperature 35 °F 26 °F 0 °F (1979)
Degree Days  
Heating Degree Days 24 31  
Month to date heating degree days 256  
Since 1 July heating degree days 1141  
Cooling Degree Days 0 0  
Month to date cooling degree days 0  
Year to date cooling degree days 465  
Moisture  
Dew Point 37 °F    
Average Humidity 83    
Maximum Humidity 95    
Minimum Humidity 71    
Precipitation  
Precipitation 0.00 in 0.05 in 2.02 in (1977)
Month to date precipitation 0.45  
Year to date precipitation 25.98  
Snow  
Snow 0.00 in 0.20 in 2.80 in (1983)
Month to date snowfall 1.5  
Since 1 July snowfall 2.3  
Since 1 September snowfall 2.3  
Snow Depth -    
Sea Level Pressure  
Sea Level Pressure 30.00 in    
Wind  
Wind Speed 9 mph (NE)    
Max Wind Speed 16 mph    
Max Gust Speed 23 mph    
Visibility 10 miles    
Events      
T = Trace of Precipitation, MM = Missing Value Source: NWS Daily Summary

Daily Weather History Graph

Daily Weather History Graph

Search for Another Location

Airport:

Trip Planner

Search our weather history database for the weather conditions in past years. The results will help you decide how hot, cold, wet, or windy it might be!

Date:

Astronomy

Nov. 09, 2012 Rise Set
Actual Time 7:05 AM CST 4:51 PM CST
Civil Twilight 6:34 AM CST 5:23 PM CST
Nautical Twilight 5:59 AM CST 5:58 PM CST
Astronomical Twilight 5:24 AM CST 6:33 PM CST
Moon 1:53 AM CST (11/9) 2:16 PM CST (11/9)
Length of Visible Light 10h 48m
Length of Day
9h 46m
Waning Crescent, 23% of the Moon is Illuminated
Nov 9
Waning Crescent
Nov 13
New
Nov 20
First Quarter
Nov 28
Full
Dec 6
Last Quarter

Hourly Weather History & Observations

Time (CST) Temp. Windchill Dew Point Humidity Pressure Visibility Wind Dir Wind Speed Gust Speed Precip Events Conditions
12:13 AM 36.5 °F 31.8 °F 34.7 °F 93% 30.04 in 10.0 mi NNE 5.8 mph - N/A   Clear
12:33 AM 36.3 °F 30.8 °F 34.7 °F 94% 30.03 in 10.0 mi North 6.9 mph - N/A   Clear
12:53 AM 36.1 °F 31.4 °F 34.7 °F 94% 30.03 in 10.0 mi NNE 5.8 mph - N/A   Clear
1:13 AM 36.0 °F 30.3 °F 34.3 °F 94% 30.03 in 7.0 mi North 6.9 mph - N/A   Clear
1:33 AM 35.8 °F 29.4 °F 34.2 °F 94% 30.02 in 7.0 mi North 8.1 mph - N/A   Clear
1:53 AM 35.8 °F 29.4 °F 34.2 °F 94% 30.02 in 10.0 mi North 8.1 mph - N/A   Clear
2:13 AM 35.8 °F 28.3 °F 34.0 °F 93% 30.02 in 10.0 mi North 10.4 mph - N/A   Clear
2:33 AM 35.6 °F 29.2 °F 34.0 °F 94% 30.01 in 10.0 mi NNE 8.1 mph - N/A   Clear
2:53 AM 35.6 °F 28.6 °F 33.8 °F 93% 30.02 in 10.0 mi North 9.2 mph - N/A   Clear
3:13 AM 35.6 °F 29.2 °F 34.0 °F 94% 30.01 in 7.0 mi NNE 8.1 mph - N/A   Clear
3:33 AM 35.6 °F 29.2 °F 34.0 °F 94% 30.02 in 7.0 mi NNE 8.1 mph - N/A   Clear
3:53 AM 35.6 °F 29.9 °F 34.0 °F 94% 30.03 in 7.0 mi North 6.9 mph - N/A   Clear
4:13 AM 35.6 °F 29.2 °F 34.2 °F 94% 30.03 in 7.0 mi North 8.1 mph - N/A   Clear
4:33 AM 35.6 °F 28.6 °F 34.0 °F 94% 30.03 in 7.0 mi North 9.2 mph - N/A   Clear
4:53 AM 35.6 °F 29.2 °F 34.2 °F 94% 30.04 in 7.0 mi North 8.1 mph - N/A   Clear
5:13 AM 35.6 °F 29.9 °F 34.3 °F 95% 30.04 in 7.0 mi NNE 6.9 mph - N/A   Clear
5:53 AM 35.8 °F 28.8 °F 34.3 °F 94% 30.03 in 10.0 mi NNE 9.2 mph - N/A   Clear
6:13 AM 36.5 °F 29.7 °F 34.9 °F 94% 30.03 in 10.0 mi NNE 9.2 mph - N/A   Clear
6:33 AM 36.5 °F 29.2 °F 34.7 °F 93% 30.04 in 10.0 mi NNE 10.4 mph 16.1 mph N/A   Clear
6:53 AM 36.5 °F 29.2 °F 34.9 °F 94% 30.04 in 10.0 mi NNE 10.4 mph - N/A   Clear
7:13 AM 36.5 °F 29.7 °F 34.9 °F 94% 30.04 in 10.0 mi NE 9.2 mph - N/A   Clear
7:33 AM 37.2 °F 30.6 °F 35.6 °F 94% 30.05 in 10.0 mi NE 9.2 mph - N/A   Clear
7:53 AM 37.4 °F 31.4 °F 35.6 °F 93% 30.05 in 10.0 mi NE 8.1 mph - N/A   Clear
8:13 AM 37.9 °F 32.1 °F 35.8 °F 92% 30.05 in 10.0 mi NE 8.1 mph - N/A   Clear
8:33 AM 39.2 °F 32.5 °F 36.5 °F 90% 30.05 in 10.0 mi NE 10.4 mph - N/A   Clear
8:53 AM 39.9 °F 33.4 °F 36.7 °F 88% 30.05 in 10.0 mi NE 10.4 mph 17.3 mph N/A   Clear
9:13 AM 41.0 °F 35.2 °F 37.0 °F 86% 30.05 in 10.0 mi NE 9.2 mph - N/A   Clear
9:33 AM 42.1 °F 35.7 °F 37.4 °F 83% 30.04 in 10.0 mi NE 11.5 mph 17.3 mph N/A   Clear
9:53 AM 43.2 °F 37.9 °F 37.8 °F 81% 30.04 in 10.0 mi NE 9.2 mph - N/A   Clear
10:13 AM 44.6 °F 38.4 °F 38.1 °F 78% 30.04 in 10.0 mi NE 12.7 mph 19.6 mph N/A   Clear
10:33 AM 45.5 °F 39.2 °F 38.7 °F 77% 30.04 in 10.0 mi NE 13.8 mph 18.4 mph N/A   Clear
10:53 AM 46.2 °F 40.5 °F 38.8 °F 75% 30.02 in 10.0 mi NE 12.7 mph 19.6 mph N/A   Clear
11:13 AM 47.3 °F - 39.0 °F 73% 30.02 in 10.0 mi ENE 11.5 mph - N/A   Clear
11:33 AM 48.2 °F - 39.0 °F 71% 30.01 in 10.0 mi ENE 15.0 mph 19.6 mph N/A   Clear
11:53 AM 47.8 °F - 39.0 °F 71% 30.00 in 10.0 mi ENE 12.7 mph 18.4 mph N/A   Clear
12:13 PM 48.4 °F - 39.4 °F 71% 30.00 in 10.0 mi NE 12.7 mph 17.3 mph N/A   Clear
12:33 PM 48.4 °F - 39.2 °F 71% 29.99 in 10.0 mi NE 10.4 mph - N/A   Clear
12:53 PM 48.2 °F - 39.4 °F 72% 29.99 in 10.0 mi ENE 9.2 mph - N/A   Clear
1:13 PM 48.2 °F - 39.4 °F 72% 29.98 in 10.0 mi NE 10.4 mph - N/A   Clear
1:33 PM 48.4 °F - 39.7 °F 72% 29.98 in 10.0 mi NE 10.4 mph - N/A   Clear
1:53 PM 48.2 °F - 39.6 °F 72% 29.97 in 10.0 mi NE 12.7 mph - N/A   Clear
2:13 PM 48.4 °F - 39.4 °F 71% 29.95 in 10.0 mi NE 11.5 mph 18.4 mph N/A   Clear
2:33 PM 48.6 °F - 39.6 °F 71% 29.96 in 10.0 mi NE 11.5 mph - N/A   Clear
2:53 PM 47.8 °F - 39.7 °F 74% 29.95 in 10.0 mi NNE 13.8 mph - N/A   Clear
3:13 PM 47.3 °F - 39.6 °F 74% 29.96 in 10.0 mi NNE 13.8 mph 18.4 mph N/A   Clear
3:33 PM 46.6 °F - 39.2 °F 75% 29.95 in 10.0 mi NE 15.0 mph 23.0 mph N/A   Clear
3:53 PM 46.2 °F 40.5 °F 39.2 °F 76% 29.96 in 10.0 mi NE 12.7 mph - N/A   Clear
4:13 PM 45.5 °F 40.3 °F 38.5 °F 76% 29.96 in 10.0 mi NE 10.4 mph 20.7 mph N/A   Clear
4:33 PM 44.6 °F 38.4 °F 38.3 °F 79% 29.95 in 10.0 mi NE 12.7 mph - N/A   Clear
4:53 PM 43.9 °F 37.9 °F 37.9 °F 80% 29.95 in 10.0 mi NNE 11.5 mph - N/A   Clear
5:13 PM 43.7 °F 38.6 °F 37.8 °F 80% 29.95 in 10.0 mi NE 9.2 mph - N/A   Clear
5:33 PM 43.2 °F 37.0 °F 37.8 °F 81% 29.95 in 10.0 mi NE 11.5 mph - N/A   Clear
5:53 PM 42.8 °F 36.6 °F 37.4 °F 81% 29.96 in 10.0 mi NE 11.5 mph - N/A   Clear
6:13 PM 43.0 °F 37.2 °F 37.4 °F 81% 29.96 in 10.0 mi NE 10.4 mph 17.3 mph N/A   Mostly Cloudy
6:33 PM 43.5 °F 37.1 °F 37.4 °F 79% 29.96 in 10.0 mi NE 12.7 mph 17.3 mph N/A   Overcast
6:53 PM 43.2 °F 37.0 °F 37.4 °F 80% 29.95 in 10.0 mi NE 11.5 mph 17.3 mph N/A   Overcast
7:13 PM 43.2 °F 37.4 °F 37.0 °F 79% 29.95 in 10.0 mi NE 10.4 mph 18.4 mph N/A   Mostly Cloudy
7:33 PM 43.2 °F 37.0 °F 37.0 °F 79% 29.97 in 10.0 mi NE 11.5 mph 18.4 mph N/A   Mostly Cloudy
7:53 PM 43.0 °F 36.8 °F 37.0 °F 80% 29.97 in 10.0 mi NE 11.5 mph 16.1 mph N/A   Overcast
8:13 PM 43.2 °F 37.0 °F 37.0 °F 79% 29.98 in 10.0 mi NE 11.5 mph - N/A   Overcast
8:33 PM 43.2 °F 37.9 °F 37.0 °F 79% 29.98 in 10.0 mi NE 9.2 mph 16.1 mph N/A   Overcast
8:53 PM 42.8 °F 37.5 °F 36.9 °F 80% 29.98 in 10.0 mi NE 9.2 mph 16.1 mph N/A   Overcast
9:13 PM 43.0 °F 35.4 °F 36.9 °F 79% 29.97 in 10.0 mi ENE 16.1 mph - N/A   Overcast
9:33 PM 43.2 °F 37.4 °F 37.0 °F 79% 29.97 in 10.0 mi ENE 10.4 mph 19.6 mph N/A   Overcast
9:53 PM 43.2 °F 36.6 °F 37.0 °F 79% 29.96 in 10.0 mi ENE 12.7 mph 18.4 mph N/A   Overcast
10:13 PM 43.2 °F 36.2 °F 37.0 °F 79% 29.96 in 10.0 mi ENE 13.8 mph - N/A   Overcast
10:33 PM 43.3 °F 36.1 °F 36.9 °F 78% 29.95 in 10.0 mi ENE 15.0 mph 20.7 mph N/A   Overcast
10:53 PM 43.3 °F 36.1 °F 37.0 °F 78% 29.94 in 10.0 mi ENE 15.0 mph - N/A   Overcast
11:13 PM 43.3 °F 36.8 °F 37.0 °F 78% 29.93 in 10.0 mi ENE 12.7 mph - N/A   Overcast
11:33 PM 43.7 °F 36.9 °F 37.4 °F 78% 29.93 in 10.0 mi ENE 13.8 mph - N/A   Overcast
11:53 PM 43.7 °F 37.3 °F 37.6 °F 79% 29.91 in 10.0 mi ENE 12.7 mph 17.3 mph N/A   Overcast